Weather Roundup
Issued by NWS Springfield, MO

Home | Current Version | Previous Version | Text Only | Print | Product List | Glossary On
Versions: 1 2 3 4 5 6 7 8 9 10 11 12 13 14 15 16 17 18 19 20 21 22 23 24 25 26 27 28 29 30 31 32 33 34 35 36 37 38 39 40 41 42 43 44 45 46 47 48 49 50
000
NZUS99 KSGF 030859
HRRSGF

HOURLY WEATHER
NATIONAL WEATHER SERVICE SPRINGFIELD MO
400 AM CDT MON AUG 03 2015

......SGF CWA......

CITY           SKY/WX    TMP DP  RH WIND       PRES   REMARKS
SPRINGFIELD    CLEAR     69  63  81 CALM      29.93F
JOPLIN         PTCLDY    70  66  87 CALM      29.95R
WEST PLAINS    CLEAR     71  67  87 CALM      29.95S
ROLLA          MOCLDY    69  66  90 SW9       29.86F
OSAGE BEACH    PTCLDY    75  64  69 NW5       29.89R

......SURROUNDING SGF CWA......

CITY           SKY/WX    TMP DP  RH WIND       PRES   REMARKS
CHANUTE        CLEAR     71  65  81 NE5       29.94R
PARSONS        PTCLDY    67  66  97 CALM      29.92S
COFFEYVILLE    CLEAR     69  66  90 SE3       29.90S
EMPORIA        CLEAR     71  65  81 S8        29.92R
SILOAM SPRINGS CLEAR     70  63  78 CALM      29.94S
HARRISON AR    CLEAR     67  64  90 CALM      29.96S
NEAR YELLVILLE CLEAR     70  66  88 NE6       29.92R

......KANSAS AND MISSOURI......

CITY           SKY/WX    TMP DP  RH WIND       PRES   REMARKS
KANSAS CTY INT PTCLDY    74  65  73 SE6       29.91F
DOWNTOWN KC    CLEAR     75  67  76 NE5       29.90S
COLUMBIA       CLOUDY    72  64  76 SW3       29.86R
SEDALIA        PTCLDY    73  64  73 SW7       29.90F
ST JOSEPH      PTCLDY    71  64  78 E7        29.92R
ST LOUIS       CLOUDY    81  66  60 W12       29.83S
SPIRIT OF STL  CLOUDY    75  68  78 SW5       29.83R
KIRKSVILLE     MOCLDY    68  60  75 N7        29.88R
WICHITA        MOCLDY    71  66  84 S6        29.91R
TOPEKA         CLEAR     74  69  85 CALM      29.89S
OLATHE         CLEAR     73  65  75 E3        29.92R

......TENNESSEE......

CITY           SKY/WX    TMP DP  RH WIND       PRES   REMARKS
MEMPHIS        CLEAR     76  69  79 CALM      29.91R
NASHVILLE      PTCLDY    65  64  97 S3        29.92S

......ARKANSAS.......

CITY           SKY/WX    TMP DP  RH WIND       PRES   REMARKS
FAYETTEVILLE   CLEAR     67  67 100 S3        29.96R
FT SMITH       CLEAR     74  68  81 NE3       29.91R
LITTLE ROCK    PTCLDY    75  68  78 CALM      29.91R

......OKLAHOMA.......

CITY           SKY/WX    TMP DP  RH WIND       PRES   REMARKS
TULSA          MOCLDY    76  69  79 S3        29.89R
PONCA CITY     CLEAR     76  65  68 S6        29.90R
MCALESTER      PTCLDY    73  62  68 CALM      29.91S
OKLAHOMA CITY  MOCLDY    71  66  84 S5        29.91S

......IOWA............

CITY           SKY/WX    TMP DP  RH WIND       PRES   REMARKS
DES MOINES     PTCLDY    72  59  63 N6        29.91S
QUAD CITIES    PTCLDY    69  62  78 W6        29.82R

......ILLINOIS........

CITY           SKY/WX    TMP DP  RH WIND       PRES   REMARKS
QUINCY         PTCLDY    72  58  61 N10       29.85R
CHICAGO        PTCLDY    68  66  93 W7        29.76R



USA.gov is the U.S. government's official web portal to all federal, state and local government web resources and services.